User: anonymous   Login
Location: Oshawa
(43.9000°N, 78.8670°W)
Time: 14:32:00
(UTC-04:00)
Language:

SPOT 5 - Orbit

View from above orbital plane
View from above orbital plane
View from above satellite
View from above satellite

Ground track
Ground track

The orbit data is extracted from the following two-line orbital elements,

1 27421U 02021A   14296.36900661  .00000326  00000-0  17278-3 0   567
2 27421 098.5475 355.3368 0001400 103.5355 317.7499 14.20116282646515
Epoch (UTC): 23 October 2014 08:51:22
Eccentricity: 0.0001400
inclination: 98.5475°
perigee height: 824 km
apogee height: 826 km
right ascension of ascending node: 355.3368°
argument of perigee: 103.5355°
revolutions per day: 14.20116282
mean anomaly at epoch: 317.7499°
orbit number at epoch: 64651

The dashed part of the orbit path shows where the satellite is in the earth's shadow,  

DLR